TimeEDT,TemperatureF,Dew PointF,Humidity,Sea Level PressureIn,VisibilityMPH,Wind Direction,Wind SpeedMPH,Gust SpeedMPH,PrecipitationIn,Events,Conditions,WindDirDegrees,DateUTC
12:56 AM,68.0,57.0,68,29.93,10.0,NNW,3.5,-,N/A,,Mostly Cloudy,340,2013-10-20 04:56:00
1:56 AM,68.0,54.0,61,29.93,10.0,NW,5.8,-,N/A,,Overcast,320,2013-10-20 05:56:00
2:56 AM,66.9,53.1,61,29.93,10.0,NNW,5.8,-,N/A,,Overcast,330,2013-10-20 06:56:00
3:56 AM,66.0,53.1,63,29.93,10.0,NNW,9.2,-,N/A,,Overcast,330,2013-10-20 07:56:00
4:56 AM,62.1,55.0,78,29.93,10.0,NNW,8.1,-,0.00,,Overcast,330,2013-10-20 08:56:00
5:56 AM,63.0,55.9,78,29.93,10.0,North,6.9,-,N/A,,Mostly Cloudy,350,2013-10-20 09:56:00
6:56 AM,63.0,55.9,78,29.95,10.0,North,6.9,-,N/A,,Mostly Cloudy,350,2013-10-20 10:56:00
7:56 AM,63.0,57.0,81,29.98,10.0,North,6.9,-,N/A,,Mostly Cloudy,350,2013-10-20 11:56:00
8:56 AM,64.9,57.0,75,30.01,10.0,NNE,8.1,-,N/A,,Mostly Cloudy,30,2013-10-20 12:56:00
9:56 AM,66.0,55.9,70,30.03,10.0,NNE,12.7,-,N/A,,Mostly Cloudy,30,2013-10-20 13:56:00
10:56 AM,68.0,55.9,65,30.03,10.0,NE,13.8,-,N/A,,Mostly Cloudy,40,2013-10-20 14:56:00
11:56 AM,70.0,55.9,61,30.05,10.0,ENE,10.4,-,N/A,,Mostly Cloudy,70,2013-10-20 15:56:00
12:56 PM,71.1,55.9,59,30.04,10.0,ENE,9.2,-,N/A,,Mostly Cloudy,70,2013-10-20 16:56:00
1:56 PM,73.0,55.9,55,30.01,10.0,NNE,5.8,-,N/A,,Mostly Cloudy,30,2013-10-20 17:56:00
2:56 PM,75.0,57.0,53,30.00,10.0,East,8.1,-,N/A,,Mostly Cloudy,80,2013-10-20 18:56:00
3:56 PM,75.0,57.9,55,29.99,10.0,Variable,3.5,-,N/A,,Mostly Cloudy,0,2013-10-20 19:56:00
4:56 PM,73.0,57.9,59,30.01,10.0,East,5.8,-,N/A,,Scattered Clouds,80,2013-10-20 20:56:00
5:56 PM,70.0,57.0,63,30.01,10.0,ESE,5.8,-,N/A,,Scattered Clouds,110,2013-10-20 21:56:00
6:56 PM,68.0,57.0,68,30.03,10.0,East,6.9,-,N/A,,Scattered Clouds,90,2013-10-20 22:56:00
7:56 PM,64.9,57.9,78,30.04,10.0,NE,4.6,-,N/A,,Scattered Clouds,50,2013-10-20 23:56:00
8:56 PM,63.0,55.9,78,30.06,10.0,NE,6.9,-,N/A,,Mostly Cloudy,50,2013-10-21 00:56:00
9:56 PM,62.1,55.9,80,30.06,10.0,NNE,4.6,-,N/A,,Scattered Clouds,20,2013-10-21 01:56:00
10:56 PM,61.0,55.0,81,30.07,10.0,NNE,6.9,-,N/A,,Mostly Cloudy,30,2013-10-21 02:56:00
11:56 PM,61.0,54.0,78,30.07,10.0,NNE,5.8,-,N/A,,Mostly Cloudy,30,2013-10-21 03:56:00